STARLINK-35431, 66030

Orbit data source: Space-Track

STARLINK-35431, 66030 is a payload satellite owned by SpaceX/Seattle (US) in LEO that was launched on Thu, 16 Oct 2025 UTC via an FALCON 9 launch vehicle from the Air Force Eastern Test Range (AFETR). Payload-class satellites include a variety of spacecraft equipped with specific instruments for various scientific and technological missions. These include communications satellites like Starlink; space stations such as the ISS; scientific satellites like the Hubble; Earth observation satellites from companies like Planet Labs, Umbra, and HawkEye 360; GPS; miniature CubeSats for education and research; and military/defense satellites.

Loading next visibility...
Identifier
66030, 2025-232AB
Orbit
LEO
Country
Flag of USUS
Related business
Manufacturer
SpaceX/Seattle
Mission
Operational Commercial Communications
Bus & Motor
STARLINK V2MO, Unknown motor
Mass
575 kg wet, ~530 kg dry
Launch date (UTC)
2025-10-16 (8 months ago)
Launch vehicle
FALCON 9
Launch site
Air Force Eastern Test Range (AFETR)
Object type
Payload
Rocket body
Debris
Shape & HBR
Box + 2 Pan, 17.7 m
Radar Cross Section
36.964 m², Large (>1 m²)

Expand to show TLE details & history
Last TLE update: 1 day ago

TLE from 1 day ago
0 STARLINK-35431
1 66030U 25232AB  26170.77915562  .00019563  00000-0  58848-3 0  9997
2 66030  53.1588 349.1644 0000992 116.7031 243.4073 15.34406860 39076
Epoch: 2026-06-19T18:41Z
TLE epoch observation values (Epoch: 2026-06-19T18:41:59.045Z)
Latitude
-0.00004°
Longitude
160.66511°
Altitude
463.888 km
Speed
7.636 km/s
True Right ascension
23h 16m 39s
True Declination
0° 00' 00"
Sunlit
Object was in daylight at epoch
Visualization orbit readout
Latitude
Unknown
Longitude
Unknown
Altitude
Unknown
Speed
Unknown
Apparent Right ascension
Unknown
Apparent Declination
Unknown
Sunlit
N/A
Visualization observer readout
Local Sidereal Time
07:12:15
Azimuth
Unknown
Elevation
Unknown
Doppler factor
Unknown
Orbital elements
Apogee altitude
463.619 km
Perigee altitude
462.261 km
Semi-major axis
6,841.077 km
Eccentricity
0.0001
Inclination
53.1588°
RAAN
349.1644°
Arg. of periapsis
116.7031°
True anomaly
243.39714°
Mean anomaly
243.4073°
Eccentric anomaly
243.40222°
Mean motion
3.8358 °/min
Orbital period
93.85 mins
BSTAR
0.00058848
Loading maneuver chart data...
Computing Atmospheric mass density...
Loading historical data...
Loading historical data...
Loading historical data...
Loading historical data...
Loading historical data...
Loading historical data...
Loading historical data...

Documentation

Showing up to 5 results
|